Regional Weather Roundup
Issued by NWS

Home | Current Version | Previous Version | Text Only | Print | Product List | Glossary Off
Versions: 1 2 3 4 5 6 7 8 9 10 11 12 13 14 15 16 17 18 19 20 21 22 23 24 25 26 27 28 29 30 31 32 33 34 35 36 37 38 39 40 41 42 43 44 45 46 47 48 49 50

000
ASUS45 KPSR 290810
RWRAZ

ARIZONA HOURLY REGIONAL WEATHER ROUNDUP
NATIONAL WEATHER SERVICE PHOENIX AZ
100 AM MST SAT APR 29 2017

NOTE: FAIR INDICATES FEW OR NO CLOUDS BELOW 12,000 FEET WITH NO
SIGNIFICANT WEATHER AND/OR OBSTRUCTIONS TO VISIBILITY.

AZZ001>003-036-290900-
NORTHWEST ARIZONA

CITY           SKY/WX    TMP DP  RH WIND       PRES   REMARKS
BULLHEAD CITY  CLEAR     66  25  20 N16       29.91S
KINGMAN        CLEAR     39  32  76 CALM      29.96R
$$

AZZ004>008-015-016-018-290900-
NORTH CENTRAL ARIZONA

CITY           SKY/WX    TMP DP  RH WIND       PRES   REMARKS
GRAND CANYON   CLEAR     30  15  53 W5        29.93R WCI  25
WILLIAMS       CLEAR     28  12  50 N9        29.92S WCI  20
PRESCOTT       CLEAR     35  15  44 NW5       29.92S WCI  31
FLAGSTAFF      CLEAR     26  10  50 N3        29.90R
PAYSON         CLEAR     43  10  26 N7        29.89S
PAGE           CLEAR     46  21  37 W5        29.90R
$$

AZZ009>014-017-290900-
NORTHEAST ARIZONA

CITY           SKY/WX    TMP DP  RH WIND       PRES   REMARKS
WINSLOW        CLEAR     34  12  40 W8        29.88R WCI  27
SAINT JOHNS    PTCLDY    34  30  85 S10       29.83F WCI  26
WINDOW ROCK    CLEAR     25  15  66 CALM      29.84F
SHOW LOW       MOCLDY    32  10  40 NW8       29.86S WCI  25
$$

AZZ540-542>544-546-548-290900-
GREATER PHOENIX AREA

CITY           SKY/WX    TMP DP  RH WIND       PRES   REMARKS
PHOENIX        CLEAR     65  13  13 NW12      29.78R
BUCKEYE        CLEAR     55   9  15 N7        29.83R
LUKE AFB       CLEAR     59  20  22 NW14      29.80S
DEER VALLEY    CLEAR     61  12  14 N16       29.79S
SCOTTSDALE     CLEAR     60  13  15 NW5       29.81R
MESA-GATEWAY   CLEAR     59  16  18 NW10      29.79S
$$

AZZ539-553-290900-
SOUTHWEST MARICOPA COUNTY AND PINAL COUNTY

CITY           SKY/WX    TMP DP  RH WIND       PRES   REMARKS
CASA GRANDE    PTCLDY    63  12  13 NW14G21   29.80R
GILA BEND      FAIR      65   8  10 NE6       29.80S
$$

AZZ503-504-507>509-290900-
SOUTHEAST ARIZONA

CITY           SKY/WX    TMP DP  RH WIND       PRES   REMARKS
TUCSON         MOCLDY    61   3  10 NW15      29.82S
DAVIS-MONTHAN  CLOUDY    61   6  11 NW10      29.80F
NOGALES        MOCLDY    57   3  11 NW8       29.84S
SIERRA VISTA   PTCLDY    52  -1  11 W15G22    29.85F
DOUGLAS        MOCLDY    58   2  10 NW18G25   29.81S
SAFFORD        MOCLDY    56  17  21 W18G28    29.75R
$$

AZZ532-290900-
SOUTHWEST ARIZONA

CITY           SKY/WX    TMP DP  RH WIND       PRES   REMARKS
YUMA           PTCLDY    70  13  11 NE12      29.83R
$$

CAZ041-043-047-048-061-525>527-560>570-290900-
SOUTHERN CALIFORNIA

CITY           SKY/WX    TMP DP  RH WIND       PRES   REMARKS
DOWNTOWN L.A.  CLEAR     74  20  13 VRB5      29.86R
L.A. AIRPORT   CLEAR     73  22  14 N13       29.86R
SAN DIEGO      PTCLDY    64  57  78 CALM      29.85R
BURBANK        CLEAR     70  13  11 NE18G24   29.89R
ONTARIO        PTCLDY    69   8   9 NE8G22    29.91R
RIVERSIDE      CLEAR     70  14  11 NE10G21   29.92R
PALM SPRINGS   CLEAR     73  10   9 N15       29.96R
EL CENTRO NAS  CLEAR     63  20  19 NE10      29.88R
IMPERIAL       CLEAR     70  17  13 NE10      29.86R
BLYTHE         CLEAR     68  15  13 N17G30    29.88R
NEEDLES        CLEAR     66  16  14 N10       29.92R
$$

NVZ020-UTZ003-290900-
SOUTHERN NEVADA-UTAH

CITY           SKY/WX    TMP DP  RH WIND       PRES   REMARKS
LAS VEGAS      CLEAR     59  16  18 N13G20    30.01R
SALT LAKE CITY MOCLDY    42  27  55 N18       30.06R
$$

NMZ009-TXZ055-290900-
NEW MEXICO-WEST TEXAS

CITY           SKY/WX    TMP DP  RH WIND       PRES   REMARKS
ALBUQUERQUE    LGT RAIN  37  35  92 W7        29.80F WCI  32
EL PASO        LGT RAIN  52  45  77 N22       29.74R
$$


........................KEY........................
SKY/WX - SKY CONDITION/WEATHER
TMP    - TEMPERATURE IN FAHRENHEIT
DP     - DEW POINT IN FAHRENHEIT
RH     - RELATIVE HUMIDITY IN PERCENT
WIND   - DIRECTION AND SPEED IN MILES PER HOUR (MPH)
VRB    - VARIABLE WIND DIRECTION
PRES   - MEAN SEA LEVEL PRESSURE IN INCHES OF MERCURY
         F - FALLING PRESSURE   R - RISING PRESSURE
         S - STEADY PRESSURE
VSB    - VISIBILITY IN MILES
HX     - HEAT INDEX IN FAHRENHEIT
WCI    - WIND CHILL INDEX IN FAHRENHEIT
TC     - TEMPERATURE IN CELSIUS WHICH IS ALSO KNOWN AS
         TEMPERATURE IN CENTIGRADE
AFB    - AIR FORCE BASE
         LUKE AFB IS LUKE AIR FORCE BASE
         DAVIS-MONTHAN IS DAVIS-MONTHAN AIR FORCE BASE
NAS    - NAVAL AIR STATION
         EL CENTRO NAS IS EL CENTRO NAVAL AIR STATION
N/A    - NOT AVAILABLE




USA.gov is the U.S. government's official web portal to all federal, state and local government web resources and services.